Humidity-temperature Sensor

Selected Measurement Type: Relative Humidity

 
Relative Humidity [%]     6 entries per hour
Showing data from 12/8/2016 (00:00:00 Z) to 12/1/2016 (00:01:00 Z)
Previous Next [ Day | 3-Days | 7-Days ]
First Last
Prev [ Day | 3-Days | 7-Days ] Next
First Last

Start Time:     :
End Time:     :     
Time (in GMT) :00 :50 :40 :30 :20 :10
Previous Next [ Day | 3-Days | 7-Days ]
First Last
Prev [ Day | 3-Days | 7-Days ] Next
First Last


123 => good data
MM => data is determined as missing
-- => data not received/configured
Back to Top Back to Top
12/8/2016 00:00 to 23:10 78.81 77.82 77.38 75.95 76.88 77.61
12/7/2016 23:00 to 22:10 -- -- -- -- -- --
12/7/2016 22:00 to 21:10 77.84 76.96 76.54 78.37 77.74 77.84
12/7/2016 21:00 to 20:10 77.86 76.75 76.50 78.52 79.80 80.01
12/7/2016 20:00 to 19:10 80.26 81.75 80.62 79.63 79.57 80.37
12/7/2016 19:00 to 18:10 80.18 79.51 80.14 80.05 81.12 80.58
12/7/2016 18:00 to 17:10 78.98 78.45 79.61 80.53 79.15 79.36
12/7/2016 17:00 to 16:10 80.68 81.31 82.22 80.91 82.41 80.64
12/7/2016 16:00 to 15:10 80.11 80.75 79.78 80.30 80.32 80.37
12/7/2016 15:00 to 14:10 82.43 81.31 83.21 82.68 84.00 84.63
12/7/2016 14:00 to 13:10 86.23 87.66 87.85 87.73 87.62 88.12
12/7/2016 13:00 to 12:10 87.47 87.26 86.63 86.78 87.54 86.80
12/7/2016 12:00 to 11:10 86.68 86.40 87.28 88.10 90.44 90.50
12/7/2016 11:00 to 10:10 89.37 88.46 89.11 89.28 88.99 87.73
12/7/2016 10:00 to 9:10 88.40 89.22 85.69 86.67 87.54 87.66
12/7/2016 09:00 to 8:10 88.76 83.00 82.72 83.65 84.85 84.13
12/7/2016 08:00 to 7:10 83.79 83.14 84.19 84.38 81.97 80.94
12/7/2016 07:00 to 6:10 81.88 81.54 80.05 80.81 80.70 80.64
12/7/2016 06:00 to 5:10 82.20 81.21 80.49 83.35 85.35 87.56
12/7/2016 05:00 to 4:10 89.09 90.16 90.69 91.05 82.03 80.53
12/7/2016 04:00 to 3:10 80.89 82.22 80.64 79.71 80.58 80.14
12/7/2016 03:00 to 2:10 81.27 83.29 88.88 89.28 84.24 82.05
12/7/2016 02:00 to 1:10 81.35 80.89 83.08 81.75 81.19 83.39
12/7/2016 01:00 to 0:10 82.76 82.79 83.16 81.25 82.13 83.71
12/7/2016 00:00 to 23:10 81.52 80.35 81.23 80.98 80.30 81.42
12/6/2016 23:00 to 22:10 81.19 80.96 82.01 83.00 83.61 83.29
12/6/2016 22:00 to 21:10 83.73 83.00 83.06 84.19 83.73 83.29
12/6/2016 21:00 to 20:10 83.84 83.20 84.09 82.89 84.59 82.41
12/6/2016 20:00 to 19:10 83.00 81.65 81.46 82.97 82.43 83.02
12/6/2016 19:00 to 18:10 81.73 81.61 80.96 82.83 83.31 83.60
12/6/2016 18:00 to 17:10 83.14 80.87 80.75 82.53 83.18 83.52
12/6/2016 17:00 to 16:10 83.69 83.44 82.91 83.33 82.72 84.53
12/6/2016 16:00 to 15:10 85.45 82.51 81.97 83.42 83.10 85.14
12/6/2016 15:00 to 14:10 84.95 82.26 83.21 81.69 82.36 81.73
12/6/2016 14:00 to 13:10 -- -- -- -- -- --
12/6/2016 13:00 to 12:10 82.43 84.32 83.16 83.71 84.99 83.79
12/6/2016 12:00 to 11:10 84.26 82.78 84.70 83.33 82.83 84.47
12/6/2016 11:00 to 10:10 84.51 85.24 83.42 83.35 85.67 85.03
12/6/2016 10:00 to 9:10 86.68 89.79 89.43 87.18 82.72 83.96
12/6/2016 09:00 to 8:10 82.64 83.90 84.22 85.08 89.74 89.34
12/6/2016 08:00 to 7:10 87.28 89.03 88.55 87.62 84.89 87.33
12/6/2016 07:00 to 6:10 87.45 87.52 86.89 87.28 89.68 86.91
12/6/2016 06:00 to 5:10 -- -- -- -- -- --
12/6/2016 05:00 to 4:10 92.23 91.97 90.84 89.32 90.67 90.23
12/6/2016 04:00 to 3:10 89.34 87.64 84.45 82.99 83.06 81.76
12/6/2016 03:00 to 2:10 81.12 80.37 81.61 81.99 82.17 82.03
12/6/2016 02:00 to 1:10 82.37 82.45 81.50 80.39 79.90 81.27
12/6/2016 01:00 to 0:10 80.24 80.77 80.24 80.30 80.37 81.69
12/6/2016 00:00 to 23:10 80.85 80.98 79.74 81.52 81.99 81.86
12/5/2016 23:00 to 22:10 81.55 82.26 82.34 83.60 81.84 80.96
12/5/2016 22:00 to 21:10 80.87 81.57 82.62 83.42 83.84 83.75
12/5/2016 21:00 to 20:10 83.40 81.36 80.68 79.80 79.99 80.53
12/5/2016 20:00 to 19:10 79.90 79.90 80.87 81.75 81.06 82.32
12/5/2016 19:00 to 18:10 81.76 77.61 78.35 78.69 78.50 77.05
12/5/2016 18:00 to 17:10 78.73 77.66 77.93 78.14 78.22 80.20
12/5/2016 17:00 to 16:10 79.59 80.89 82.49 81.15 79.19 80.49
12/5/2016 16:00 to 15:10 79.40 81.48 81.15 80.93 81.54 81.63
12/5/2016 15:00 to 14:10 82.15 80.79 82.01 83.23 84.21 83.86
12/5/2016 14:00 to 13:10 84.28 83.08 84.74 84.51 85.14 84.97
12/5/2016 13:00 to 12:10 83.50 82.76 84.82 82.26 78.29 79.19
12/5/2016 12:00 to 11:10 77.84 78.73 78.35 77.93 78.26 78.01
12/5/2016 11:00 to 10:10 78.27 78.24 79.00 80.09 78.62 78.75
12/5/2016 10:00 to 9:10 78.54 77.72 78.77 78.68 79.71 79.91
12/5/2016 09:00 to 8:10 79.84 81.10 79.71 79.91 80.24 80.28
12/5/2016 08:00 to 7:10 79.13 79.65 81.71 81.69 82.97 81.25
12/5/2016 07:00 to 6:10 82.39 82.09 82.05 81.54 80.77 81.15
12/5/2016 06:00 to 5:10 79.99 79.57 79.51 81.10 81.69 78.18
12/5/2016 05:00 to 4:10 80.09 81.00 80.56 80.70 80.89 80.47
12/5/2016 04:00 to 3:10 79.72 81.27 80.22 79.74 79.78 79.72
12/5/2016 03:00 to 2:10 78.90 78.77 80.16 79.46 79.38 79.53
12/5/2016 02:00 to 1:10 78.16 79.55 77.68 79.88 79.30 79.32
12/5/2016 01:00 to 0:10 79.69 78.08 78.71 78.87 79.57 78.05
12/5/2016 00:00 to 23:10 79.19 78.12 78.64 78.64 79.11 78.94
12/4/2016 23:00 to 22:10 -- -- -- -- -- --
12/4/2016 22:00 to 21:10 79.78 80.18 80.79 82.15 81.76 81.55
12/4/2016 21:00 to 20:10 80.87 81.10 82.20 81.92 81.38 81.96
12/4/2016 20:00 to 19:10 81.55 81.02 82.55 82.55 81.10 82.13
12/4/2016 19:00 to 18:10 82.47 83.40 82.81 83.27 83.63 83.04
12/4/2016 18:00 to 17:10 83.88 84.82 84.55 83.56 82.15 82.93
12/4/2016 17:00 to 16:10 83.58 85.16 84.43 83.60 81.97 84.63
12/4/2016 16:00 to 15:10 84.95 85.22 83.79 84.19 85.85 86.02
12/4/2016 15:00 to 14:10 86.07 85.43 84.24 83.69 84.47 83.96
12/4/2016 14:00 to 13:10 84.19 85.45 87.20 86.13 86.27 86.30
12/4/2016 13:00 to 12:10 86.32 87.33 86.93 87.14 85.83 85.67
12/4/2016 12:00 to 11:10 87.09 86.91 87.70 88.08 85.39 85.79
12/4/2016 11:00 to 10:10 84.80 85.45 84.17 86.51 86.25 86.02
12/4/2016 10:00 to 9:10 86.44 86.48 85.54 84.84 84.82 85.73
12/4/2016 09:00 to 8:10 85.04 85.85 87.16 86.88 87.58 87.50
12/4/2016 08:00 to 7:10 85.96 86.65 86.95 87.22 85.35 85.31
12/4/2016 07:00 to 6:10 83.94 83.84 84.05 85.10 85.33 84.95
12/4/2016 06:00 to 5:10 86.68 86.21 86.53 86.17 85.25 85.14
12/4/2016 05:00 to 4:10 85.50 84.80 84.40 85.04 85.45 85.52
12/4/2016 04:00 to 3:10 84.42 84.61 84.05 84.22 85.62 85.45
12/4/2016 03:00 to 2:10 83.56 83.12 82.83 85.25 85.04 86.21
12/4/2016 02:00 to 1:10 85.37 82.95 83.42 82.47 82.95 81.67
12/4/2016 01:00 to 0:10 82.47 81.82 82.91 82.78 81.94 82.74
12/4/2016 00:00 to 23:10 82.07 82.51 83.42 84.97 83.61 83.29
12/3/2016 23:00 to 22:10 84.42 83.46 82.89 81.25 82.89 83.61
12/3/2016 22:00 to 21:10 82.91 83.52 84.49 82.07 81.23 81.33
12/3/2016 21:00 to 20:10 80.41 80.07 79.53 80.18 80.05 81.71
12/3/2016 20:00 to 19:10 82.26 80.96 80.24 81.19 81.92 81.40
12/3/2016 19:00 to 18:10 81.38 81.02 82.66 81.40 82.17 80.96
12/3/2016 18:00 to 17:10 81.86 81.50 82.51 82.70 82.57 82.70
12/3/2016 17:00 to 16:10 81.99 82.43 82.01 84.13 84.76 83.50
12/3/2016 16:00 to 15:10 85.03 86.15 85.83 83.08 82.76 83.58
12/3/2016 15:00 to 14:10 84.99 83.10 82.66 83.58 85.08 85.56
12/3/2016 14:00 to 13:10 84.68 85.04 86.19 86.17 86.00 84.55
12/3/2016 13:00 to 12:10 83.12 81.96 80.94 80.49 80.79 79.57
12/3/2016 12:00 to 11:10 82.36 81.15 82.15 82.43 81.35 81.61
12/3/2016 11:00 to 10:10 83.52 82.28 83.31 83.35 83.23 83.71
12/3/2016 10:00 to 9:10 83.14 83.21 82.09 82.26 82.26 82.28
12/3/2016 09:00 to 8:10 82.05 81.78 81.90 81.38 81.99 81.76
12/3/2016 08:00 to 7:10 81.50 80.93 82.09 80.70 80.39 80.47
12/3/2016 07:00 to 6:10 81.52 81.27 79.90 79.99 79.55 79.48
12/3/2016 06:00 to 5:10 -- -- -- -- -- --
12/3/2016 05:00 to 4:10 79.72 79.11 79.34 78.75 78.12 78.33
12/3/2016 04:00 to 3:10 80.07 80.20 79.27 77.91 78.18 79.27
12/3/2016 03:00 to 2:10 77.99 77.25 77.26 77.70 78.64 77.55
12/3/2016 02:00 to 1:10 77.09 77.93 76.83 76.71 76.48 78.20
12/3/2016 01:00 to 0:10 78.33 77.04 77.00 77.40 75.89 78.07
12/3/2016 00:00 to 23:10 76.33 75.51 75.03 75.87 75.05 74.54
12/2/2016 23:00 to 22:10 76.69 77.05 76.04 77.02 76.67 75.72
12/2/2016 22:00 to 21:10 76.69 77.49 78.60 78.58 78.56 79.32
12/2/2016 21:00 to 20:10 80.01 81.55 81.27 80.51 80.60 80.24
12/2/2016 20:00 to 19:10 80.98 82.39 82.55 83.48 82.74 79.19
12/2/2016 19:00 to 18:10 78.81 79.63 80.26 78.47 78.24 78.60
12/2/2016 18:00 to 17:10 79.80 78.58 79.02 80.83 81.12 80.81
12/2/2016 17:00 to 16:10 78.60 81.08 75.93 75.57 77.57 79.29
12/2/2016 16:00 to 15:10 75.66 75.80 75.17 74.75 73.16 73.49
12/2/2016 15:00 to 14:10 73.24 72.82 73.55 72.63 73.56 73.77
12/2/2016 14:00 to 13:10 73.70 72.86 73.34 73.05 74.27 75.13
12/2/2016 13:00 to 12:10 73.85 74.38 74.16 74.98 73.91 74.10
12/2/2016 12:00 to 11:10 74.59 76.22 77.72 77.09 74.02 75.17
12/2/2016 11:00 to 10:10 75.83 74.23 74.61 73.91 73.03 73.81
12/2/2016 10:00 to 9:10 73.98 74.02 74.46 73.77 72.74 74.84
12/2/2016 09:00 to 8:10 73.83 73.56 72.57 74.10 75.01 75.13
12/2/2016 08:00 to 7:10 74.80 74.37 73.62 75.15 75.68 74.80
12/2/2016 07:00 to 6:10 74.61 72.69 74.52 75.32 75.20 75.97
12/2/2016 06:00 to 5:10 76.08 74.37 72.92 74.35 72.86 72.94
12/2/2016 05:00 to 4:10 72.21 73.13 73.51 74.65 75.41 73.30
12/2/2016 04:00 to 3:10 73.20 73.22 72.15 72.40 72.61 70.88
12/2/2016 03:00 to 2:10 70.04 72.34 69.16 71.01 72.48 72.53
12/2/2016 02:00 to 1:10 72.67 71.73 71.75 70.61 70.99 71.66
12/2/2016 01:00 to 0:10 70.59 70.76 68.76 70.40 70.17 70.93
12/2/2016 00:00 to 23:10 71.47 71.52 70.00 71.09 71.43 71.62
12/1/2016 23:00 to 22:10 72.67 71.49 70.63 70.74 70.84 72.42
12/1/2016 22:00 to 21:10 72.00 72.69 72.29 73.26 71.96 71.98
12/1/2016 21:00 to 20:10 70.44 71.96 73.39 74.65 73.95 73.66
12/1/2016 20:00 to 19:10 73.47 73.87 73.66 71.64 74.38 72.67
12/1/2016 19:00 to 18:10 73.43 74.82 73.85 73.24 74.63 75.15
12/1/2016 18:00 to 17:10 74.27 74.21 74.48 74.65 75.15 75.15
12/1/2016 17:00 to 16:10 75.83 76.98 73.13 73.81 75.09 74.29
12/1/2016 16:00 to 15:10 73.81 73.07 74.19 74.27 74.71 75.20
12/1/2016 15:00 to 14:10 75.24 74.10 74.21 73.81 75.15 74.58
12/1/2016 14:00 to 13:10 75.20 75.81 75.41 76.58 75.53 76.94
12/1/2016 13:00 to 12:10 76.75 77.44 75.99 78.96 77.55 77.55
12/1/2016 12:00 to 11:10 77.19 76.75 76.14 76.48 77.61 75.99
12/1/2016 11:00 to 10:10 77.47 78.90 78.20 77.59 76.81 78.05
12/1/2016 10:00 to 9:10 76.54 77.95 77.65 77.47 78.50 78.10
12/1/2016 09:00 to 8:10 78.12 77.55 76.06 77.49 78.41 76.90
12/1/2016 08:00 to 7:10 77.36 77.25 78.77 77.09 77.42 76.46
12/1/2016 07:00 to 6:10 76.48 76.75 77.61 76.20 77.07 76.77
12/1/2016 06:00 to 5:10 76.75 77.00 78.64 78.62 78.45 77.49
12/1/2016 05:00 to 4:10 78.08 79.88 77.49 77.80 78.64 79.09
12/1/2016 04:00 to 3:10 78.62 78.64 79.99 79.30 78.03 79.23
12/1/2016 03:00 to 2:10 79.51 81.57 81.10 84.55 87.24 86.42
12/1/2016 02:00 to 1:10 85.54 85.33 84.66 87.91 86.30 88.15
12/1/2016 01:00 to 0:10 83.08 82.62 83.46 83.12 81.54 81.76